Location: Joffre
(52.3362°N, 113.5373°W)
Time: 07:32:18
(UTC+00:00)

Envisat - Pass Details

Date: 30 November 2021
Orbit: 764 x 766 km, 98.2° (Epoch: 17 January)

Event Time Altitude Azimuth Distance (km) Brightness Sun altitude
Rises 00:57:43 0° 210° (SSW) 3,224 7.0 -13.3°
Reaches altitude 10° 01:00:42 10° 228° (SW) 2,303 6.6 -13.7°
Maximum altitude 01:04:12 19° 272° (W) 1,790 5.9 -14.3°
Drops below altitude 10° 01:07:44 10° 316° (NW) 2,315 5.8 -14.8°
Sets 01:10:46 0° 335° (NNW) 3,248 6.4 -15.2°
